STARLINK-32550, 62131

Orbit data source: Space-Track

STARLINK-32550, 62131 is a payload satellite owned by SpaceX/Seattle (US) in LEO that was launched on Wed, 27 Nov 2024 UTC via an FALCON 9 launch vehicle from the Air Force Eastern Test Range (AFETR). Payload-class satellites include a variety of spacecraft equipped with specific instruments for various scientific and technological missions. These include communications satellites like Starlink; space stations such as the ISS; scientific satellites like the Hubble; Earth observation satellites from companies like Planet Labs, Umbra, and HawkEye 360; GPS; miniature CubeSats for education and research; and military/defense satellites.

Loading next visibility...
Identifier
62131, 2024-222T
Orbit
LEO
Country
Flag of USUS
Related business
Manufacturer
SpaceX/Seattle
Mission
Operational Commercial Communications
Bus & Motor
STARLINK V2M, Unknown motor
Mass
730 kg wet, ~700 kg dry
Launch date (UTC)
2024-11-27 (2 years ago)
Launch vehicle
FALCON 9
Launch site
Air Force Eastern Test Range (AFETR)
Object type
Payload
Rocket body
Debris
Shape & HBR
Box + 2 Pan, 17.7 m
Radar Cross Section
33.884 m², Large (>1 m²)

Expand to show TLE details & history
Last TLE update: 14 hours ago

TLE from 14 hours ago
0 STARLINK-32550
1 62131U 24222T   26171.26475830  .00019232  00000-0  70627-3 0  9999
2 62131  43.0006 277.1381 0002303 281.6900  78.3694 15.27593305 88486
Epoch: 2026-06-20T06:21Z
TLE epoch observation values (Epoch: 2026-06-20T06:21:15.117Z)
Latitude
0.00006°
Longitude
-86.6567°
Altitude
482.467 km
Speed
7.626 km/s
True Right ascension
18h 28m 33s
True Declination
0° 00' 00"
Sunlit
Object was in full shadow at epoch
Visualization orbit readout
Latitude
Unknown
Longitude
Unknown
Altitude
Unknown
Speed
Unknown
Apparent Right ascension
Unknown
Apparent Declination
Unknown
Sunlit
N/A
Visualization observer readout
Local Sidereal Time
07:16:58
Azimuth
Unknown
Elevation
Unknown
Doppler factor
Unknown
Orbital elements
Apogee altitude
486.535 km
Perigee altitude
483.374 km
Semi-major axis
6,863.091 km
Eccentricity
0.00023
Inclination
43.0006°
RAAN
277.1381°
Arg. of periapsis
281.69°
True anomaly
78.39525°
Mean anomaly
78.3694°
Eccentric anomaly
78.38232°
Mean motion
3.81736 °/min
Orbital period
94.31 mins
BSTAR
0.00070627
Loading maneuver chart data...
Computing Atmospheric mass density...
Loading historical data...
Loading historical data...
Loading historical data...
Loading historical data...
Loading historical data...
Loading historical data...
Loading historical data...

Documentation

Showing up to 5 results
|